User: anonymous   Login
Location: Unspecified
(0.0000°N, 0.0000°E)
Time: 00:10:22
(UTC+00:00)
Language:

OBJECT PQ - Orbit

View from above orbital plane
View from above orbital plane
View from above satellite
View from above satellite

Ground track
Ground track

The orbit data is extracted from the following two-line orbital elements,

1 43640U 98067PQ  19047.77166438  .00005989  00000-0  89934-4 0  9998
2 43640  51.6373 238.3090 0005292   4.9826 355.1218 15.56419473 20727
Epoch (UTC): 16 February 2019 18:31:11
Eccentricity: 0.0005292
inclination: 51.6373°
perigee height: 394 km
apogee height: 401 km
right ascension of ascending node: 238.3090°
argument of perigee: 4.9826°
revolutions per day: 15.56419473
mean anomaly at epoch: 355.1218°
orbit number at epoch: 2072

The dashed part of the orbit path shows where the satellite is in the earth's shadow,  

DLR